Regional Weather Roundup
Issued by NWS Burlington, VT

Home | Current Version | Previous Version | Text Only | Print | Product List | Glossary On
Versions: 1 2 3 4 5 6 7 8 9 10 11 12 13 14 15 16 17 18 19 20 21 22 23 24 25 26 27
000
ASUS41 KBTV 250810
RWRBTV
VERMONT REGIONAL WEATHER ROUNDUP
NATIONAL WEATHER SERVICE BURLINGTON VT
400 AM EDT SAT OCT 25 2014

NOTE: "FAIR" INDICATES FEW OR NO CLOUDS BELOW 12,000 FEET WITH NO
SIGNIFICANT WEATHER AND/OR OBSTRUCTIONS TO VISIBILITY.

* THESE REPORTS ARE NOT UNDER NWS QUALITY CONTROL AND/OR DO NOT
  REPORT WEATHER SUCH AS PRECIPITATION AND FOG.

VTZ001>019-250900-
_____VERMONT_____


CITY           SKY/WX    TMP DP  RH WIND       PRES   REMARKS
BURLINGTON     SUNNY     37  35  92 CALM      29.78F
MONTPELIER     FOG       32  31  96 CALM      29.79S VSB 3/4
MORRISVILLE    FOG       33  33 100 CALM      29.78F VSB 1/4
ST. JOHNSBURY*   N/A     35  35 100 MISG      29.75F
LYNDONVILLE*   FAIR      33  31  93 CALM      29.76F
MIDDLEBURY*    FAIR      36  36 100 CALM      29.79S
RUTLAND*       SUNNY     36  34  93 SE5       29.80S
SPRINGFIELD    SUNNY     37  36  96 CALM      29.78S
HIGHGATE*      FAIR      42  38  87 S3        29.75F
NEWPORT*       FAIR      32  31  97 CALM      29.76S
BENNINGTON     CLOUDY    35  34  96 CALM      29.82S
SUTTON*          N/A     32 N/A N/A MISG        N/A

_____LAKE CHAMPLAIN_____


CITY           SKY/WX    TMP DP  RH WIND       PRES   REMARKS
COLCHESTER RF*   N/A     48  46  93 S16         N/A
DIAMOND ISL*     N/A     43  41  93 S2          N/A

$$

NYZ007-026>031-035-052-083-250900-
_____NORTHERN NEW YORK_____


CITY           SKY/WX    TMP DP  RH WIND       PRES   REMARKS
PLATTSBURGH    SUNNY     39  38  96 CALM      29.76F
SARANAC LAKE   FOG       35  35 100 S7        29.79S VSB 3/4
MASSENA        MOSUNNY   41  39  93 SW7       29.81S
OGDENSBURG*    MOSUNNY   39  39 100 SW3       29.81F
POTSDAM*       SUNNY     43  43 100 SW7       29.81F
WATERTOWN      MOSUNNY   40  34  79 S3        29.84F
FT DRUM        SUNNY     45  42  89 W6        29.83F
ALBANY         MOSUNNY   46  40  79 VRB5      29.84S
GLENS FALLS    FOG       42  41  96 S6        29.81F VSB 1/4

$$
NHZ002-005-011-250900-
_____NEW HAMPSHIRE_____


CITY           SKY/WX    TMP DP  RH WIND       PRES   REMARKS
LEBANON        MOSUNNY   35  32  88 CALM      29.77S
KEENE          SUNNY     39  32  75 CALM      29.78S
MT WASHINGTON  MOSUNNY   28  27  93 NW49        N/A  WCI   9
PLYMOUTH       FAIR      45  38  75 NW8       29.72S
WHITEFIELD     FOG       35  34  96 CALM      29.75F VSB 1/2

$$

_____REGIONAL QUEBEC LOCATIONS_____


CITY           SKY/WX    TMP DP  RH WIND       PRES   REMARKS
MONTREAL       MOSUNNY   45  41  87 SW7       29.74F
QUEBEC CITY    MOSUNNY   32  30  93 CALM      29.73S
SHERBROOKE     SUNNY     32  32 100 E3        29.74S

_____REGIONAL ONTARIO LOCATIONS_____


CITY           SKY/WX    TMP DP  RH WIND       PRES   REMARKS
OTTAWA         MOSUNNY   41  34  75 W7        29.79F

______KEY______
VSB  - VISIBILITY IN MILES
WCI  - WIND CHILL INDEX
HX   - HEAT INDEX
$$
NNNN



USA.gov is the U.S. government's official web portal to all federal, state and local government web resources and services.